PST,Max TemperatureF,Mean TemperatureF,Min TemperatureF,Max Dew PointF,MeanDew PointF,Min DewpointF,Max Humidity, Mean Humidity, Min Humidity, Max Sea Level PressureIn, Mean Sea Level PressureIn, Min Sea Level PressureIn, Max VisibilityMiles, Mean VisibilityMiles, Min VisibilityMiles, Max Wind SpeedMPH, Mean Wind SpeedMPH, Max Gust SpeedMPH,PrecipitationIn, CloudCover, Events, WindDirDegrees
2012-12-1,48,44,39,39,36,30,93,76,53,29.87,29.77,29.59,10,10,9,29,16,37,0.00,7,,176
2012-12-2,42,36,30,39,29,10,93,75,27,30.07,29.83,29.44,10,10,10,29,18,39,0.00,4,,190
2012-12-3,42,35,28,32,29,25,93,74,53,30.18,30.11,30.03,10,10,10,28,10,40,0.00,5,,167
2012-12-4,42,38,35,39,37,30,100,92,75,30.14,30.09,30.06,10,10,10,28,18,33,0.01,8,,185
2012-12-5,48,40,33,43,38,32,100,91,71,30.16,30.13,30.08,10,10,10,18,11,23,0.04,5,,163
2012-12-6,42,36,28,36,31,27,100,84,57,30.18,30.12,30.09,10,10,10,13,6,17,0.00,3,,184
2012-12-7,39,29,19,28,24,18,100,77,48,30.18,30.12,30.07,10,10,10,15,5,20,0.00,0,,194
2012-12-8,37,30,24,27,24,19,93,79,52,30.22,30.14,30.10,10,10,10,12,7,,0.00,1,,161
2012-12-9,41,29,17,28,23,16,100,80,53,30.38,30.31,30.22,10,10,10,7,4,,0.00,3,,333
2012-12-10,44,30,17,34,25,16,100,87,57,30.39,30.32,30.20,10,10,10,8,4,,0.00,0,,339
2012-12-11,42,32,21,34,27,19,100,85,57,30.19,29.86,29.64,10,7,0,23,7,28,0.08,5,,173
2012-12-12,33,28,24,32,27,21,100,90,75,29.83,29.73,29.64,10,10,0,12,4,,0.03,8,,220
2012-12-13,33,22,10,27,21,9,100,88,75,29.89,29.83,29.77,10,10,1,0,0,,0.00,4,,-1
2012-12-14,26,24,21,25,23,19,100,95,86,29.89,29.78,29.72,10,7,0,12,6,,0.00,8,,150
2012-12-15,28,17,6,27,20,3,100,90,80,29.90,29.83,29.77,10,9,1,25,10,30,0.00,6,,170
2012-12-16,35,32,28,34,28,25,93,92,86,29.86,29.78,29.54,10,8,2,30,19,38,0.01,8,,167
2012-12-17,35,24,10,34,24,7,100,83,65,29.91,29.77,29.56,10,8,0,36,20,46,0.04,5,,226
2012-12-18,24,11,-2,19,8,-13,100,85,54,30.03,29.93,29.87,10,10,0,14,5,,0.00,2,,176
2012-12-19,28,12,-5,19,9,-9,100,80,64,30.13,30.06,29.99,10,10,10,18,6,22,0.00,4,,178
2012-12-20,35,30,26,28,21,14,87,66,51,30.00,29.87,29.77,10,10,10,30,15,38,0.00,5,,178
2012-12-21,35,32,30,32,29,25,100,89,70,29.84,29.78,29.71,10,9,2,24,16,37,0.00,7,,166
2012-12-22,33,30,26,32,28,23,100,89,80,29.88,29.72,29.58,10,8,0,26,16,36,0.07,7,,175
2012-12-23,35,30,26,34,28,23,100,89,75,29.88,29.75,29.61,10,8,1,33,15,41,0.00,8,,177
2012-12-24,30,16,0,23,14,-2,100,85,69,30.14,30.06,29.84,10,10,10,14,8,,0.00,2,,171
2012-12-25,32,16,1,28,21,-2,100,93,85,30.08,29.86,29.69,10,7,0,15,6,20,0.04,7,,171
2012-12-26,33,28,24,28,26,21,100,91,70,29.93,29.77,29.64,10,8,2,13,6,,0.01,8,,178
2012-12-27,28,14,1,25,17,-4,100,91,78,30.12,30.05,29.93,10,8,0,8,3,,0.00,7,,19
2012-12-28,19,7,-5,18,6,-9,100,91,78,30.11,30.06,30.02,10,8,0,8,2,,0.00,5,,342
2012-12-29,28,24,19,25,21,18,100,92,80,30.04,30.00,29.94,10,8,2,6,1,,0.00,8,,144
2012-12-30,26,13,0,21,15,-6,100,84,69,30.17,30.09,29.99,10,10,3,21,8,25,0.00,6,,360
2012-12-31,14,2,-11,10,-5,-29,100,71,24,30.26,30.20,30.14,10,8,0,10,3,,0.00,5,,295